カタログに戻る

SCOUT G-1 DEB

運用中PO
NORAD 28676·DEBRIS·🇺🇸 United States

打ち上げ Aug 25, 1988 から Vandenberg Space Force Base

Loading…

次のパス (今後24時間)

TLE

最新Source: Space-Track

元期: Sep 12, 2026, 00:46 UTC

1 28676U 88074M   26255.03246834  .00000519  00000-0  79432-3 0  9999
2 28676  89.9639 357.8742 0088387 359.4899   0.6147 13.49132310651313

AllMySatでSCOUT G-1 DEBをリアルタイム追跡

Download on the App Store